Location: Goodsell Observatory
(44.4617°N, 93.1522°W)
Time: 13:56:08
(UTC-05:00)

Daily predictions for brighter satellites

Satellite Brightness Start Highest point End
(mag) Time Altitude Azimuth Time Altitude Azimuth Time Altitude Azimuth
BREEZE-M DEB (TANK) 4.3 20:03:14 10° SSW 20:06:55 45° SE 20:18:12 10° ENE
Cosmos 2369 3.8 20:11:12 10° SSW 20:16:52 86° ESE 20:22:37 10° NNE
H-2A R/B 3.3 20:16:08 10° SE 20:19:50 42° ENE 20:23:36 10° N
Meteor 1-28 Rocket 4.2 20:17:27 10° N 20:21:10 53° WNW 20:24:51 10° SSW
Cosmos 1656 3.8 20:16:09 10° S 20:21:35 54° ESE 20:27:00 10° NNE
FENGYUN 3A 3.7 20:16:46 10° SSE 20:22:00 60° ENE 20:27:17 10° N
CZ-4B DEB 2.8 20:21:35 10° SSE 20:24:51 75° ENE 20:28:09 10° N
Cosmos 2263 Rocket 4.2 20:29:51 10° NNE 20:32:26 13° NE 20:35:01 10° ENE
Lacrosse 5 1.9 20:31:40 10° NW 20:36:45 84° SW 20:41:49 10° SE
Iridium 4 Rocket 3.4 20:31:55 10° N 20:36:47 52° E 20:41:11 10° SSE
EO 1 Delta rocket 4.0 20:34:40 10° NNE 20:39:26 68° E 20:45:02 10° S
Cosmos 2227 Rocket 3.4 20:35:13 10° NW 20:40:32 43° WSW 20:45:50 10° S
Cosmos 1825 Rocket 4.5 20:36:39 10° NNE 20:40:33 30° ENE 20:44:13 11° SE
Cosmos 1500 3.4 20:37:36 10° SSE 20:41:12 46° E 20:44:50 10° NNE
Cosmos 1975 2.8 20:40:44 10° S 20:44:50 84° E 20:48:57 10° N
Cosmos 1340 3.8 20:41:45 10° NNE 20:45:02 27° ENE 20:47:32 14° SE
Lacrosse 5 rocket 3.6 20:43:10 10° W 20:45:41 17° WSW 20:48:08 10° SSW
CZ-2D R/B 3.3 20:42:00 10° SSE 20:45:52 87° WSW 20:49:48 10° NNW
Cosmos 2322 Rocket 3.7 20:43:34 11° SE 20:46:14 15° E 20:49:19 10° ENE
Cosmos 2084 4.2 20:42:53 10° NW 20:46:49 48° WSW 20:50:56 10° SSE
SPOT 5 4.3 20:47:47 13° ESE 20:50:32 21° ENE 20:54:00 10° NNE
Cosmos 1937 Rocket 3.5 20:47:13 10° NNW 20:52:30 74° ENE 20:57:49 10° SSE
Envisat 3.7 20:49:38 13° SE 20:53:37 35° ENE 20:58:13 10° N
Cosmos 2297 Rocket 3.3 20:49:53 10° NW 20:55:15 45° WSW 21:00:36 10° S
Cosmos 2173 Rocket 4.2 20:50:53 10° SSE 20:56:57 50° E 21:03:01 10° NNE
H-2A R/B 3.3 20:55:01 16° ESE 20:56:59 23° ENE 21:00:17 10° NNE
USA 186 1.7 20:54:38 10° S 20:57:35 71° W 21:00:20 10° NNW
Cosmos 1626 Rocket 4.1 20:53:18 10° NNW 20:57:39 60° W 21:01:55 10° S
Cosmos 990 Rocket 4.1 20:54:45 10° NNW 21:00:00 64° ENE 21:04:27 14° SSE
Cosmos 2298 Rocket 4.5 20:55:49 10° NNW 21:01:06 64° WSW 21:06:20 10° S
Cosmos 1515 4.1 21:00:27 10° NNW 21:04:16 63° W 21:08:02 10° S
CZ-4 DEB 2.9 21:03:21 21° SE 21:05:13 52° ENE 21:08:18 10° N
ALOS 3.1 21:00:45 10° S 21:05:17 51° W 21:09:52 10° NNW
Cosmos 2227 4.3 21:02:30 10° NNW 21:08:14 64° ENE 21:12:24 19° SE
Meteor 1-21 4.4 21:04:55 10° N 21:10:38 58° ENE 21:15:23 15° SSE
Cosmos 1758 Rocket 4.1 21:07:07 10° N 21:11:12 38° ENE 21:13:13 24° SE
ERS-1 Rocket 3.0 21:08:47 14° SSE 21:13:04 66° ENE 21:18:04 10° N
Cosmos 2100 Rocket 3.9 21:09:17 10° S 21:15:32 75° E 21:21:45 10° NNE
YAOGAN 11 4.1 21:11:55 14° SSE 21:15:45 77° ENE 21:20:10 10° N
BREEZE-M DEB (TANK) 1.7 21:13:44 10° WNW 21:15:52 73° NNE 21:17:24 29° ESE
Tiangong 1 2.5 21:18:19 10° W 21:20:57 25° SSW 21:21:38 23° S
deb Chang Zheng 4 4.2 21:21:23 10° NNE 21:25:31 36° E 21:26:46 30° SE
Cosmos 1939 Rocket 2.9 21:23:17 24° SSE 21:25:43 72° ENE 21:29:53 10° N
Cosmos 1743 2.7 21:21:50 10° S 21:25:44 88° E 21:29:41 10° N
Cosmos 1763 Rocket 3.3 21:20:52 10° S 21:25:55 68° ESE 21:30:58 10° NNE
H-2A R/B 3.9 21:25:29 13° ENE 21:26:21 14° ENE 21:28:42 10° NNE
Tsikada Rocket 4.4 21:20:58 10° N 21:27:06 45° ENE 21:30:24 26° SE
Cosmos 1697 Rocket 3.3 21:24:42 10° SW 21:30:17 60° WNW 21:35:53 10° NNE
Cosmos 2061 Rocket 4.0 21:25:47 10° S 21:32:05 90° ESE 21:38:22 10° N
Cosmos 1459 Rocket 4.0 21:32:46 10° SSW 21:38:50 79° W 21:45:00 10° N
ARGOS 3.9 21:39:04 29° E 21:40:31 34° ENE 21:45:21 10° N
USA 215 4.3 21:37:03 14° ENE 21:41:58 37° NNE 21:47:51 10° NW
Cosmos 1125 Rocket 3.5 21:37:13 10° NNW 21:42:24 61° ENE 21:44:17 38° SE
Cosmos 1606 Rocket 3.5 21:38:26 11° S 21:42:43 86° W 21:47:13 10° N
Cosmos 2058 Rocket 3.1 21:40:58 33° SSE 21:42:50 61° E 21:47:18 10° NNE
SL-16 R/B 2.5 21:41:42 26° SSE 21:44:21 43° ESE 21:49:41 10° NE
SPOT 1/Viking Rocket 4.2 21:44:10 34° E 21:45:26 39° ENE 21:50:16 10° N
Cosmos 1725 Rocket 4.0 21:42:59 22° SSE 21:47:00 60° E 21:53:10 10° NNE
MetOp-B 4.2 21:46:30 37° SE 21:48:30 61° ENE 21:53:47 10° N
Cosmos 2098 Rocket 3.8 21:43:33 11° S 21:49:58 71° E 21:55:19 10° NNE
ASTEX 1 3.4 21:45:01 10° NNE 21:50:00 65° E 21:51:52 37° SSE
RESURS DK-1 4.5 21:47:51 10° NW 21:51:08 23° WSW 21:54:08 11° SSW
Cosmos 841 Rocket 3.5 21:46:00 10° SSW 21:51:15 83° WNW 21:56:29 10° NNE
Cosmos 1980 Rocket 2.7 21:49:09 10° SW 21:54:46 62° WNW 22:00:27 10° NNE
Cosmos 2360 Rocket 4.1 21:58:32 14° ENE 21:58:32 14° ENE 21:59:44 10° NE
Cosmos 540 Rocket 3.8 21:55:48 43° E 21:55:48 43° E 22:00:28 10° NNE
Cosmos 1842 3.4 21:58:41 10° NNW 22:02:34 68° W 22:03:13 56° SSW
Cosmos 1726 Rocket 4.1 22:01:45 17° SSW 22:04:59 59° W 22:09:22 10° N
YAOGAN 6 2.6 22:05:28 74° NNE 22:05:28 74° NNE 22:08:57 10° N
Cosmos 1666 2.9 22:04:42 52° SW 22:05:26 68° W 22:09:14 10° N
Cosmos 2233 Rocket 4.1 22:06:51 45° SE 22:08:14 54° E 22:14:18 10° NNE
Cosmos 372 Rocket 3.8 22:07:55 10° NNW 22:13:03 70° ENE 22:13:41 63° ESE
Cosmos 332 Rocket 3.7 22:16:30 71° ESE 22:16:30 71° ESE 22:21:23 10° NNE
Cosmos 2263 Rocket 2.1 22:11:58 10° NNW 22:17:31 64° ENE 22:18:16 58° ESE
Cosmos 371 Rocket 4.3 22:20:22 34° NE 22:20:22 34° NE 22:23:18 10° NNE
Lacrosse 5 4.1 22:16:11 10° W 22:19:01 15° WSW 22:21:09 12° SSW
Landsat 7 4.4 22:26:52 45° NE 22:26:52 45° NE 22:30:55 10° N
SL-19 R/B 3.9 22:22:23 10° NNE 22:27:49 76° ESE 22:28:11 72° SE
SPOT 5 3.5 22:27:02 40° SW 22:28:17 51° W 22:32:55 10° NNW
Cosmos 2322 Rocket 2.2 22:25:05 17° SSW 22:29:31 80° WNW 22:35:11 10° NNE
H-2A R/B 3.3 22:32:10 31° WSW 22:32:50 33° W 22:36:38 10° NNW
Cosmos 2228 3.5 22:32:39 53° W 22:32:59 54° WNW 22:37:12 10° N
CZ-4B R/B 3.7 22:34:20 10° NNE 22:38:03 53° NE 22:38:03 53° NE
Terra 2.7 22:42:37 41° NE 22:42:37 41° NE 22:46:10 10° N
Meteor 2-5 Rocket 3.6 22:38:52 10° N 22:44:49 85° ENE 22:45:04 81° SE
Meteor 1-24 Rocket 4.1 22:45:46 10° N 22:51:23 57° ENE 22:51:23 57° ENE
Cosmos 405 Rocket 4.4 22:48:47 10° NNW 22:51:07 30° NW 22:51:07 30° NW
Cosmos 1464 Rocket 4.2 22:58:08 57° ENE 22:58:08 57° ENE 23:03:42 10° NNE
ATLAS CENTAUR R/B 4.4 23:02:48 48° ESE 23:02:53 48° ESE 23:21:45 10° NE
H-2A R/B 2.4 23:06:08 57° NNW 23:06:08 57° NNW 23:10:03 10° NNW
GP-B 4.4 23:03:24 10° N 23:06:09 37° N 23:06:09 37° N
Cosmos 2278 Rocket 3.8 23:07:07 10° N 23:11:26 23° NE 23:11:26 23° NE
ARGOS 4.3 23:20:35 35° W 23:20:43 35° W 23:25:38 10° NNW
USA 215 3.2 23:24:24 80° NE 23:24:27 80° NE 23:31:02 10° NW
Lacrosse 4 Rocket 4.3 23:29:23 12° NNE 23:29:23 12° NNE 23:29:44 10° NNE
Cosmos 1844 Rocket 3.5 23:23:02 10° NNW 23:27:15 45° NNE 23:27:15 45° NNE
SL-16 R/B 3.8 23:23:31 10° WSW 23:28:34 32° NW 23:33:39 10° N
BREEZE-M DEB (TANK) 4.4 23:15:40 10° WNW 23:38:16 61° SW 23:38:36 60° SW
BREEZE-M DEB (TANK) 4.3 23:26:00 10° WNW 23:37:50 47° WSW 23:37:50 47° WSW
Cosmos 2360 Rocket 2.9 23:40:15 50° NNW 23:40:15 50° NNW 23:44:44 10° NNE
